Torna al catalogo

SL-8 DEB *

AttivoVLEO
NORAD 14818·DEBRIS·🇷🇺 Russia

Lanciato Jul 1, 1977 da Plesetsk Cosmodrome

Loading…

Prossimi Passaggi (prossime 24 ore)

TLE

AggiornatoSource: Space-Track

Epoca: Sep 14, 2026, 09:17 UTC

1 14818U 77059D   26257.38732775  .00022417  00000-0  75319-3 0  9998
2 14818  74.0395 150.1291 0004842 230.4693 129.6083 15.30751002431265

Traccia SL-8 DEB * in tempo reale con AllMySat

Download on the App Store